Terminal Aerodrome Forecast
Issued by NWS Pittsburgh, PA

Current Version | Previous Version | Text Only | Print | Product List | Glossary Off
Versions: 1 2 3 4 5 6 7 8 9 10 11 12 13 14 15 16 17 18 19 20 21 22 23 24 25 26 27 28 29 30 31 32 33 34 35 36 37 38 39

000
FTUS41 KPBZ 260200 AAA
TAFPIT
TAF AMD
KPIT 260236Z 2603/2706 25003KT P6SM FEW080 BKN130 OVC200
     FM260500 23003KT P6SM VCSH BKN080
     FM260900 VRB03KT P6SM FEW100 SCT250
     FM262000 22009KT P6SM VCSH BKN050=

USA.gov is the U.S. government's official web portal to all federal, state and local government web resources and services.